﻿_id,日時,平均風速(m/s),平均風向,最大瞬間風速(m/s),最大風速時風向,気温(℃),湿度(%),10分間移動積算雨量(mm),1時間移動積算雨量(mm),日雨量(mm),累計雨量(mm),日射(日積算)(MJ/m2),日照(日積算)(min),現地気圧(hPa),海面気圧(hPa)
1,2021-11-01T00:00:00,0.5,北北西,1.1,北北東,12.7,95.3,0,0,0.5,0.5,12.77,318,1009.4,1023.5
2,2021-11-01T00:01:00,0.5,北北西,1.1,北北東,12.7,95.3,0,0,0,0.5,0,0,1009.4,1023.5
3,2021-11-01T00:02:00,0.5,北西,1.1,北北東,12.7,95.3,0,0,0,0.5,0,0,1009.4,1023.5
4,2021-11-01T00:03:00,0.5,北西,1.1,北西,12.6,95.3,0,0,0,0.5,0,0,1009.4,1023.5
5,2021-11-01T00:04:00,0.5,北西,1,北西,12.7,95.4,0,0,0,0.5,0,0,1009.4,1023.5
6,2021-11-01T00:05:00,0.5,北西,1,北西,12.8,95.6,0,0,0,0.5,0,0,1009.3,1023.4
7,2021-11-01T00:06:00,0.4,北西,1,北西,12.7,95.6,0,0,0,0.5,0,0,1009.3,1023.4
8,2021-11-01T00:07:00,0.4,北西,1,西北西,12.7,95.6,0,0,0,0.5,0,0,1009.4,1023.5
9,2021-11-01T00:08:00,0.5,北西,1,西北西,12.8,95.7,0,0,0,0.5,0,0,1009.3,1023.4
10,2021-11-01T00:09:00,0.5,北西,1,西北西,12.8,95.9,0,0,0,0.5,0,0,1009.4,1023.5
11,2021-11-01T00:10:00,0.5,北西,1,西北西,12.8,95.8,0,0,0,0.5,0,0,1009.4,1023.5
12,2021-11-01T00:11:00,0.6,西北西,1.1,北西,12.8,95.8,0,0,0,0.5,0,0,1009.4,1023.5
13,2021-11-01T00:12:00,0.6,西北西,1.1,北西,12.7,95.7,0,0,0,0.5,0,0,1009.4,1023.5
14,2021-11-01T00:13:00,0.6,西北西,1.1,北西,12.8,95.8,0,0,0,0.5,0,0,1009.4,1023.5
15,2021-11-01T00:14:00,0.6,西北西,1.1,北西,12.9,95.9,0,0,0,0.5,0,0,1009.4,1023.5
16,2021-11-01T00:15:00,0.6,西北西,1.1,北西,12.8,95.9,0,0,0,0.5,0,0,1009.4,1023.5
17,2021-11-01T00:16:00,0.6,西北西,1.1,北西,12.8,95.9,0,0,0,0.5,0,0,1009.4,1023.5
18,2021-11-01T00:17:00,0.6,西北西,1.1,北西,12.7,95.8,0,0,0,0.5,0,0,1009.4,1023.5
19,2021-11-01T00:18:00,0.6,西北西,1.1,北西,12.7,95.8,0,0,0,0.5,0,0,1009.4,1023.5
20,2021-11-01T00:19:00,0.6,西北西,1.1,北西,12.8,96,0,0,0,0.5,0,0,1009.4,1023.5
21,2021-11-01T00:20:00,0.5,西北西,1.1,北西,12.8,96.1,0,0,0,0.5,0,0,1009.4,1023.5
22,2021-11-01T00:21:00,0.5,西北西,1,北西,12.8,96,0,0,0,0.5,0,0,1009.4,1023.5
23,2021-11-01T00:22:00,0.5,西北西,1,北西,12.8,96,0,0,0,0.5,0,0,1009.4,1023.5
24,2021-11-01T00:23:00,0.5,西北西,0.9,西北西,12.7,96,0,0,0,0.5,0,0,1009.4,1023.5
25,2021-11-01T00:24:00,0.5,西北西,0.9,西北西,12.8,96,0,0,0,0.5,0,0,1009.4,1023.5
26,2021-11-01T00:25:00,0.5,西北西,1.5,西北西,12.8,96,0,0,0,0.5,0,0,1009.4,1023.5
27,2021-11-01T00:26:00,0.6,西北西,1.5,西北西,12.6,95.9,0,0,0,0.5,0,0,1009.4,1023.5
28,2021-11-01T00:27:00,0.7,西北西,1.8,西北西,12.7,95.9,0,0,0,0.5,0,0,1009.4,1023.5
29,2021-11-01T00:28:00,0.8,西北西,1.8,西北西,12.7,95.7,0,0,0,0.5,0,0,1009.4,1023.5
30,2021-11-01T00:29:00,0.9,西北西,1.8,西北西,12.6,95.7,0,0,0,0.5,0,0,1009.4,1023.5
31,2021-11-01T00:30:00,1,西北西,1.8,西北西,12.5,95.5,0,0,0,0.5,0,0,1009.4,1023.5
32,2021-11-01T00:31:00,1.1,西北西,1.8,西北西,12.5,95.4,0,0,0,0.5,0,0,1009.4,1023.5
33,2021-11-01T00:32:00,1.2,西北西,1.8,西北西,12.4,95.4,0,0,0,0.5,0,0,1009.4,1023.5
34,2021-11-01T00:33:00,1.2,西北西,1.8,西北西,12.5,95.4,0,0,0,0.5,0,0,1009.3,1023.4
35,2021-11-01T00:34:00,1.3,西北西,2,西北西,12.5,95.4,0,0,0,0.5,0,0,1009.3,1023.4
36,2021-11-01T00:35:00,1.4,西北西,2.1,西北西,12.6,95.5,0,0,0,0.5,0,0,1009.3,1023.4
37,2021-11-01T00:36:00,1.4,西北西,2.2,西,12.6,95.6,0,0,0,0.5,0,0,1009.3,1023.4
38,2021-11-01T00:37:00,1.5,西北西,2.2,西,12.5,95.6,0,0,0,0.5,0,0,1009.3,1023.4
39,2021-11-01T00:38:00,1.5,西北西,2.2,西,12.4,95.4,0,0,0,0.5,0,0,1009.3,1023.4
40,2021-11-01T00:39:00,1.5,西北西,2.2,西,12.4,95.4,0,0,0,0.5,0,0,1009.3,1023.4
41,2021-11-01T00:40:00,1.5,西北西,2.2,西,12.4,95.3,0,0,0,0.5,0,0,1009.3,1023.4
42,2021-11-01T00:41:00,1.5,西北西,2.2,西,12.3,95.4,0,0,0,0.5,0,0,1009.3,1023.4
43,2021-11-01T00:42:00,1.6,西北西,2.2,西,12.3,95.5,0,0,0,0.5,0,0,1009.3,1023.4
44,2021-11-01T00:43:00,1.6,西北西,2.2,西,12.5,95.7,0,0,0,0.5,0,0,1009.3,1023.4
45,2021-11-01T00:44:00,1.6,西北西,2.2,西,12.5,95.7,0,0,0,0.5,0,0,1009.3,1023.4
46,2021-11-01T00:45:00,1.6,西北西,2.2,西,12.5,95.8,0,0,0,0.5,0,0,1009.2,1023.3
47,2021-11-01T00:46:00,1.5,西,2.1,西北西,12.4,95.7,0,0,0,0.5,0,0,1009.3,1023.4
48,2021-11-01T00:47:00,1.5,西,2.1,西北西,12.4,95.6,0,0,0,0.5,0,0,1009.3,1023.4
49,2021-11-01T00:48:00,1.4,西,1.9,西北西,12.2,95.5,0,0,0,0.5,0,0,1009.3,1023.4
50,2021-11-01T00:49:00,1.3,西,1.7,西,12.4,95.6,0,0,0,0.5,0,0,1009.3,1023.4
51,2021-11-01T00:50:00,1.3,西,1.7,西,12.4,95.8,0,0,0,0.5,0,0,1009.3,1023.4
52,2021-11-01T00:51:00,1.2,西,1.7,西,12.5,96,0,0,0,0.5,0,0,1009.3,1023.4
53,2021-11-01T00:52:00,1.2,西,1.7,西,12.4,95.9,0,0,0,0.5,0,0,1009.3,1023.4
54,2021-11-01T00:53:00,1.1,西,1.7,西,12.5,95.9,0,0,0,0.5,0,0,1009.3,1023.4
55,2021-11-01T00:54:00,1.1,西,1.7,西,12.5,96,0,0,0,0.5,0,0,1009.3,1023.4
56,2021-11-01T00:55:00,1,西,1.5,西,12.5,95.9,0,0,0,0.5,0,0,1009.3,1023.4
57,2021-11-01T00:56:00,1,西,1.5,西,12.4,95.8,0,0,0,0.5,0,0,1009.4,1023.5
58,2021-11-01T00:57:00,1,西,1.5,西,12.5,95.8,0,0,0,0.5,0,0,1009.4,1023.5
59,2021-11-01T00:58:00,1,西,1.6,西,12.4,95.8,0,0,0,0.5,0,0,1009.4,1023.5
60,2021-11-01T00:59:00,1.1,西,1.6,西,12.4,95.8,0,0,0,0.5,0,0,1009.4,1023.5
61,2021-11-01T01:00:00,1.1,西,1.6,西,12.4,95.9,0,0,0,0.5,0,0,1009.4,1023.5
62,2021-11-01T01:01:00,1.2,西,1.6,西,12.5,96,0,0,0,0.5,0,0,1009.4,1023.5
63,2021-11-01T01:02:00,1.2,西,1.6,西,12.5,96.1,0,0,0,0.5,0,0,1009.4,1023.5
64,2021-11-01T01:03:00,1.2,西,1.6,西,12.4,96,0,0,0,0.5,0,0,1009.4,1023.5
65,2021-11-01T01:04:00,1.2,西,1.6,西,12.4,95.9,0,0,0,0.5,0,0,1009.3,1023.4
66,2021-11-01T01:05:00,1.2,西,1.6,西,12.3,95.9,0,0,0,0.5,0,0,1009.3,1023.4
67,2021-11-01T01:06:00,1.1,西,1.6,西,12.2,95.8,0,0,0,0.5,0,0,1009.4,1023.5
68,2021-11-01T01:07:00,1,西北西,1.6,西,12.2,95.8,0,0,0,0.5,0,0,1009.4,1023.5
69,2021-11-01T01:08:00,1,西北西,1.6,西,12.2,95.8,0,0,0,0.5,0,0,1009.4,1023.5
70,2021-11-01T01:09:00,0.9,西北西,1.5,西,12.2,95.9,0,0,0,0.5,0,0,1009.4,1023.5
71,2021-11-01T01:10:00,0.8,西北西,1.4,西,12.2,95.9,0,0,0,0.5,0,0,1009.3,1023.4
72,2021-11-01T01:11:00,0.7,西北西,1.3,西,12.1,95.9,0,0,0,0.5,0,0,1009.3,1023.4
73,2021-11-01T01:12:00,0.6,西北西,1.2,西北西,12.1,95.8,0,0,0,0.5,0,0,1009.3,1023.4
74,2021-11-01T01:13:00,0.6,西北西,0.9,西北西,12,95.8,0,0,0,0.5,0,0,1009.3,1023.4
75,2021-11-01T01:14:00,0.6,西北西,0.9,西北西,12.1,96,0,0,0,0.5,0,0,1009.3,1023.4
76,2021-11-01T01:15:00,0.6,西北西,0.9,西北西,12.1,96.1,0,0,0,0.5,0,0,1009.3,1023.4
77,2021-11-01T01:16:00,0.6,西北西,0.8,北西,12.1,96.1,0,0,0,0.5,0,0,1009.2,1023.3
78,2021-11-01T01:17:00,0.6,北西,0.9,北西,12.2,96.2,0,0,0,0.5,0,0,1009.3,1023.4
79,2021-11-01T01:18:00,0.6,北西,0.9,北西,12.2,96.3,0,0,0,0.5,0,0,1009.3,1023.4
80,2021-11-01T01:19:00,0.6,北西,0.9,北西,12.3,96.3,0,0,0,0.5,0,0,1009.3,1023.4
81,2021-11-01T01:20:00,0.5,北西,0.9,北西,12.3,96.2,0,0,0,0.5,0,0,1009.3,1023.4
82,2021-11-01T01:21:00,0.5,北西,0.9,北西,12.3,96.1,0,0,0,0.5,0,0,1009.3,1023.4
83,2021-11-01T01:22:00,0.6,北西,0.9,北西,12.2,96.1,0,0,0,0.5,0,0,1009.2,1023.3
84,2021-11-01T01:23:00,0.6,北西,0.9,北西,12.2,96,0,0,0,0.5,0,0,1009.2,1023.3
85,2021-11-01T01:24:00,0.6,北西,0.9,北西,12,95.8,0,0,0,0.5,0,0,1009.2,1023.3
86,2021-11-01T01:25:00,0.6,北西,0.9,北西,12,95.7,0,0,0,0.5,0,0,1009.3,1023.4
87,2021-11-01T01:26:00,0.6,北北西,0.9,北西,12,95.7,0,0,0,0.5,0,0,1009.3,1023.4
88,2021-11-01T01:27:00,0.5,北北西,0.8,北北西,12.1,95.9,0,0,0,0.5,0,0,1009.2,1023.3
89,2021-11-01T01:28:00,0.5,北北西,0.8,北北西,12.1,95.9,0,0,0,0.5,0,0,1009.3,1023.4
90,2021-11-01T01:29:00,0.5,北北西,0.8,北北西,12.1,95.9,0,0,0,0.5,0,0,1009.2,1023.3
91,2021-11-01T01:30:00,0.5,北北西,0.8,北北西,12.1,95.9,0,0,0,0.5,0,0,1009.3,1023.4
92,2021-11-01T01:31:00,0.5,北北西,1.2,北北東,12.1,95.8,0,0,0,0.5,0,0,1009.3,1023.4
93,2021-11-01T01:32:00,0.5,北北西,1.2,北北東,12.2,96,0,0,0,0.5,0,0,1009.3,1023.4
94,2021-11-01T01:33:00,0.5,北北西,1.2,北北東,12.2,96.1,0,0,0,0.5,0,0,1009.3,1023.4
95,2021-11-01T01:34:00,0.6,北,1.2,北北東,12.2,96,0,0,0,0.5,0,0,1009.2,1023.3
96,2021-11-01T01:35:00,0.6,北,1.3,北,12.2,96.1,0,0,0,0.5,0,0,1009.2,1023.3
97,2021-11-01T01:36:00,0.6,北,1.3,北,12.2,95.9,0,0,0,0.5,0,0,1009.3,1023.4
98,2021-11-01T01:37:00,0.7,北,1.5,北北東,12.2,95.9,0,0,0,0.5,0,0,1009.3,1023.4
99,2021-11-01T01:38:00,0.7,北,1.5,北北東,12.1,95.9,0,0,0,0.5,0,0,1009.2,1023.3
100,2021-11-01T01:39:00,0.8,北,1.7,北北東,12.1,95.9,0,0,0,0.5,0,0,1009.2,1023.3
101,2021-11-01T01:40:00,0.9,北,1.7,北北東,12.2,96,0,0,0,0.5,0,0,1009.2,1023.3
102,2021-11-01T01:41:00,0.9,北,1.7,北北東,12.1,95.9,0,0,0,0.5,0,0,1009.2,1023.3
103,2021-11-01T01:42:00,0.9,北,1.7,北北東,12,95.8,0,0,0,0.5,0,0,1009.2,1023.3
104,2021-11-01T01:43:00,0.9,北,1.7,北北東,11.9,95.7,0,0,0,0.5,0,0,1009.2,1023.3
105,2021-11-01T01:44:00,0.8,北,1.7,北北東,11.8,95.7,0,0,0,0.5,0,0,1009.2,1023.3
106,2021-11-01T01:45:00,0.8,北,1.7,北北東,11.9,95.8,0,0,0,0.5,0,0,1009.2,1023.3
107,2021-11-01T01:46:00,0.8,北,1.7,北北東,11.8,95.7,0,0,0,0.5,0,0,1009.2,1023.3
108,2021-11-01T01:47:00,0.8,北,1.7,北北東,11.8,95.9,0,0,0,0.5,0,0,1009.2,1023.3
109,2021-11-01T01:48:00,0.8,北,1.7,北北東,11.8,96,0,0,0,0.5,0,0,1009.2,1023.3
110,2021-11-01T01:49:00,0.8,北,1.7,北北東,11.9,96.1,0,0,0,0.5,0,0,1009.2,1023.3
111,2021-11-01T01:50:00,0.7,北,1.7,北北東,11.9,96.2,0,0,0,0.5,0,0,1009.1,1023.2
112,2021-11-01T01:51:00,0.7,北北東,1.7,北北東,12,96.3,0,0,0,0.5,0,0,1009.1,1023.2
113,2021-11-01T01:52:00,0.8,北北東,1.7,北北東,12,96.3,0,0,0,0.5,0,0,1009.1,1023.2
114,2021-11-01T01:53:00,0.9,北北東,1.8,北東,12,96.3,0,0,0,0.5,0,0,1009.1,1023.2
115,2021-11-01T01:54:00,0.9,北北東,1.8,北東,12,96.3,0,0,0,0.5,0,0,1009,1023.1
116,2021-11-01T01:55:00,1,北東,1.8,北東,11.8,96.2,0,0,0,0.5,0,0,1009,1023.1
117,2021-11-01T01:56:00,1,北東,1.8,北東,11.7,96,0,0,0,0.5,0,0,1009,1023.1
118,2021-11-01T01:57:00,1,北東,1.8,北東,11.8,96.1,0,0,0,0.5,0,0,1009,1023.1
119,2021-11-01T01:58:00,1,北東,1.8,北東,11.8,96.2,0,0,0,0.5,0,0,1009,1023.1
120,2021-11-01T01:59:00,0.9,北東,1.8,北東,11.8,96.2,0,0,0,0.5,0,0,1008.9,1023
121,2021-11-01T02:00:00,0.9,北北東,1.8,北東,11.8,96.3,0,0,0,0.5,0,0,1008.9,1023
122,2021-11-01T02:01:00,0.8,北北東,1.8,北東,11.8,96.3,0,0,0,0.5,0,0,1008.9,1023
123,2021-11-01T02:02:00,0.8,北北東,1.8,北東,11.9,96.3,0,0,0,0.5,0,0,1008.9,1023
124,2021-11-01T02:03:00,0.7,北北東,1.6,北東,11.9,96.5,0,0,0,0.5,0,0,1008.8,1022.9
125,2021-11-01T02:04:00,0.6,北,1.6,北東,11.8,96.4,0,0,0,0.5,0,0,1008.9,1023
126,2021-11-01T02:05:00,0.5,北,1.6,北東,11.8,96.4,0,0,0,0.5,0,0,1008.9,1023
127,2021-11-01T02:06:00,0.4,北,1.6,北東,11.7,96.3,0,0,0,0.5,0,0,1008.9,1023
128,2021-11-01T02:07:00,0.3,北,1.2,北北東,11.7,96.3,0,0,0,0.5,0,0,1008.9,1023
129,2021-11-01T02:08:00,0.3,北北西,1.2,北北東,11.8,96.4,0,0,0,0.5,0,0,1008.9,1023
130,2021-11-01T02:09:00,0.3,北北西,1.2,北北東,11.7,96.4,0,0,0,0.5,0,0,1009,1023.1
131,2021-11-01T02:10:00,0.3,北北西,1.2,北北東,11.6,96.3,0,0,0,0.5,0,0,1009,1023.1
132,2021-11-01T02:11:00,0.3,北北西,1.2,北北東,11.6,96.3,0,0,0,0.5,0,0,1009,1023.1
133,2021-11-01T02:12:00,0.3,北北西,1.2,北北東,11.6,96.3,0,0,0,0.5,0,0,1009,1023.1
134,2021-11-01T02:13:00,0.3,北西,1.2,北北東,11.5,96.3,0,0,0,0.5,0,0,1009,1023.1
135,2021-11-01T02:14:00,0.3,北西,0.9,西,11.6,96.5,0,0,0,0.5,0,0,1009,1023.1
136,2021-11-01T02:15:00,0.3,北西,0.9,西,11.7,96.5,0,0,0,0.5,0,0,1009,1023.1
137,2021-11-01T02:16:00,0.3,北西,0.9,西,11.7,96.6,0,0,0,0.5,0,0,1009,1023.1
138,2021-11-01T02:17:00,0.4,北西,0.9,西,11.7,96.6,0,0,0,0.5,0,0,1009,1023.1
139,2021-11-01T02:18:00,0.4,北西,0.9,西,11.8,96.8,0,0,0,0.5,0,0,1009,1023.1
140,2021-11-01T02:19:00,0.4,北西,0.9,西,11.9,96.8,0,0,0,0.5,0,0,1009,1023.1
141,2021-11-01T02:20:00,0.4,北北西,0.9,西,11.9,96.9,0,0,0,0.5,0,0,1009,1023.1
142,2021-11-01T02:21:00,0.4,北北西,0.9,西,12,96.8,0,0,0,0.5,0,0,1009,1023.1
143,2021-11-01T02:22:00,0.4,北北西,0.9,北,12,96.8,0,0,0,0.5,0,0,1009,1023.1
144,2021-11-01T02:23:00,0.4,北北西,0.9,北,12,96.6,0,0,0,0.5,0,0,1009,1023.1
145,2021-11-01T02:24:00,0.3,北北西,0.9,北,12.1,96.7,0,0,0,0.5,0,0,1009,1023.1
146,2021-11-01T02:25:00,0.3,北北西,0.9,北,12,96.6,0,0,0,0.5,0,0,1009,1023.1
147,2021-11-01T02:26:00,0.3,北北西,0.9,北,11.9,96.4,0,0,0,0.5,0,0,1009,1023.1
148,2021-11-01T02:27:00,0.3,北北西,0.9,北,11.8,96.2,0,0,0,0.5,0,0,1009,1023.1
149,2021-11-01T02:28:00,0.3,北北西,0.7,北,11.8,96.2,0,0,0,0.5,0,0,1009,1023.1
150,2021-11-01T02:29:00,0.3,北西,0.7,北,11.8,96.2,0,0,0,0.5,0,0,1009,1023.1
151,2021-11-01T02:30:00,0.2,静穏,0.6,西北西,11.8,96.2,0,0,0,0.5,0,0,1009,1023.1
152,2021-11-01T02:31:00,0.2,静穏,0.6,西北西,11.8,96.2,0,0,0,0.5,0,0,1008.9,1023
153,2021-11-01T02:32:00,0.3,北西,0.6,西北西,11.9,96.3,0,0,0,0.5,0,0,1008.9,1023
154,2021-11-01T02:33:00,0.3,北西,0.6,西北西,11.8,96.3,0,0,0,0.5,0,0,1008.9,1023
155,2021-11-01T02:34:00,0.2,静穏,0.6,西北西,11.8,96.3,0,0,0,0.5,0,0,1008.8,1022.9
156,2021-11-01T02:35:00,0.3,北西,0.6,西北西,11.7,96.1,0,0,0,0.5,0,0,1008.8,1022.9
157,2021-11-01T02:36:00,0.3,北西,0.6,西北西,11.7,96.2,0,0,0,0.5,0,0,1008.8,1022.9
158,2021-11-01T02:37:00,0.2,静穏,0.4,西北西,11.7,96.3,0,0,0,0.5,0,0,1008.8,1022.9
159,2021-11-01T02:38:00,0.2,静穏,0.4,西北西,11.8,96.3,0,0,0,0.5,0,0,1008.8,1022.9
160,2021-11-01T02:39:00,0.2,静穏,0.6,西,11.8,96.5,0,0,0,0.5,0,0,1008.8,1022.9
161,2021-11-01T02:40:00,0.3,北西,0.6,西,11.7,96.3,0,0,0,0.5,0,0,1008.8,1022.9
162,2021-11-01T02:41:00,0.3,北西,0.6,西,11.7,96.3,0,0,0,0.5,0,0,1008.8,1022.9
163,2021-11-01T02:42:00,0.3,北西,0.6,西,11.8,96.3,0,0,0,0.5,0,0,1008.8,1022.9
164,2021-11-01T02:43:00,0.3,北西,0.6,西,11.7,96.4,0,0,0,0.5,0,0,1008.8,1022.9
165,2021-11-01T02:44:00,0.3,西北西,0.6,西,11.6,96.3,0,0,0,0.5,0,0,1008.8,1022.9
166,2021-11-01T02:45:00,0.3,西北西,0.7,西北西,11.7,96.4,0,0,0,0.5,0,0,1008.8,1022.9
167,2021-11-01T02:46:00,0.4,西北西,0.7,西北西,11.8,96.4,0,0,0,0.5,0,0,1008.8,1022.9
168,2021-11-01T02:47:00,0.4,西北西,1,西,11.7,96.5,0,0,0,0.5,0,0,1008.8,1022.9
169,2021-11-01T02:48:00,0.5,西北西,1.2,西北西,11.7,96.5,0,0,0,0.5,0,0,1008.8,1022.9
170,2021-11-01T02:49:00,0.6,西北西,1.5,西北西,11.9,96.6,0,0,0,0.5,0,0,1008.8,1022.9
171,2021-11-01T02:50:00,0.7,西北西,1.5,西北西,11.8,96.6,0,0,0,0.5,0,0,1008.8,1022.9
172,2021-11-01T02:51:00,0.8,西北西,1.5,西北西,11.7,96.5,0,0,0,0.5,0,0,1008.8,1022.9
173,2021-11-01T02:52:00,0.9,西北西,1.5,西北西,11.8,96.5,0,0,0,0.5,0,0,1008.8,1022.9
174,2021-11-01T02:53:00,0.9,西北西,1.5,西北西,11.8,96.5,0,0,0,0.5,0,0,1008.8,1022.9
175,2021-11-01T02:54:00,1,西北西,1.5,西北西,11.9,96.5,0,0,0,0.5,0,0,1008.8,1022.9
176,2021-11-01T02:55:00,1,西,1.5,西北西,11.7,96.4,0,0,0,0.5,0,0,1008.8,1022.9
177,2021-11-01T02:56:00,1.1,西,1.5,西北西,11.7,96.4,0,0,0,0.5,0,0,1008.8,1022.9
178,2021-11-01T02:57:00,1.1,西,1.5,西北西,11.6,96.1,0,0,0,0.5,0,0,1008.9,1023
179,2021-11-01T02:58:00,1,西,1.5,西北西,11.3,95.9,0,0,0,0.5,0,0,1008.9,1023
180,2021-11-01T02:59:00,0.9,西,1.5,西北西,11.3,95.9,0,0,0,0.5,0,0,1008.9,1023
181,2021-11-01T03:00:00,0.8,西,1.5,西北西,11.2,96,0,0,0,0.5,0,0,1009,1023.1
182,2021-11-01T03:01:00,0.7,西,1.5,西北西,11.2,96.2,0,0,0,0.5,0,0,1009,1023.1
183,2021-11-01T03:02:00,0.6,西,1.4,西北西,11.2,96.3,0,0,0,0.5,0,0,1009,1023.1
184,2021-11-01T03:03:00,0.5,西南西,1.4,西北西,11.4,96.6,0,0,0,0.5,0,0,1009,1023.1
185,2021-11-01T03:04:00,0.4,西南西,1.4,西北西,11.5,97,0,0,0,0.5,0,0,1009,1023.1
186,2021-11-01T03:05:00,0.3,南西,1.4,西北西,11.6,97.1,0,0,0,0.5,0,0,1009,1023.1
187,2021-11-01T03:06:00,0.3,西南西,1.1,西,11.4,97.1,0,0,0,0.5,0,0,1009,1023.1
188,2021-11-01T03:07:00,0.2,静穏,1.1,西,11.4,97,0,0,0,0.5,0,0,1009,1023.1
189,2021-11-01T03:08:00,0.3,西南西,1.1,西,11.6,97.4,0,0,0,0.5,0,0,1009,1023.1
190,2021-11-01T03:09:00,0.3,西,1,西南西,11.6,97.5,0,0,0,0.5,0,0,1009,1023.1
191,2021-11-01T03:10:00,0.3,西,0.9,西,11.6,97.4,0,0,0,0.5,0,0,1009,1023.1
192,2021-11-01T03:11:00,0.4,西,0.9,西,11.7,97.5,0,0,0,0.5,0,0,1009,1023.1
193,2021-11-01T03:12:00,0.4,西,0.9,西北西,11.6,97.4,0,0,0,0.5,0,0,1009,1023.1
194,2021-11-01T03:13:00,0.4,西,0.9,西北西,11.6,97.5,0,0,0,0.5,0,0,1009,1023.1
195,2021-11-01T03:14:00,0.4,西北西,0.9,西北西,11.7,97.6,0,0,0,0.5,0,0,1009,1023.1
196,2021-11-01T03:15:00,0.4,西北西,0.9,西北西,11.8,97.7,0,0,0,0.5,0,0,1009,1023.1
197,2021-11-01T03:16:00,0.4,西北西,0.9,西北西,11.6,97.7,0,0,0,0.5,0,0,1009,1023.1
198,2021-11-01T03:17:00,0.3,西北西,0.9,西北西,11.5,97.4,0,0,0,0.5,0,0,1009,1023.1
199,2021-11-01T03:18:00,0.3,北西,0.9,西北西,11.5,97.4,0,0,0,0.5,0,0,1009,1023.1
200,2021-11-01T03:19:00,0.3,北西,0.9,西北西,11.5,97.4,0,0,0,0.5,0,0,1009,1023.1
201,2021-11-01T03:20:00,0.2,静穏,0.9,西北西,11.5,97.5,0,0,0,0.5,0,0,1009,1023.1
202,2021-11-01T03:21:00,0.1,静穏,0.7,西北西,11.4,97.5,0,0,0,0.5,0,0,1008.9,1023
203,2021-11-01T03:22:00,0.1,静穏,0.6,北東,11.5,97.6,0,0,0,0.5,0,0,1008.9,1023
204,2021-11-01T03:23:00,0.1,静穏,0.6,北東,11.7,97.8,0,0,0,0.5,0,0,1008.9,1023
205,2021-11-01T03:24:00,0,静穏,0.6,北東,11.5,97.8,0,0,0,0.5,0,0,1008.9,1023
206,2021-11-01T03:25:00,0.1,静穏,0.6,北東,11.5,97.8,0,0,0,0.5,0,0,1008.9,1023
207,2021-11-01T03:26:00,0.1,静穏,0.7,北東,11.6,97.8,0,0,0,0.5,0,0,1008.9,1023
208,2021-11-01T03:27:00,0.2,静穏,0.7,北東,11.6,97.8,0,0,0,0.5,0,0,1009,1023.1
209,2021-11-01T03:28:00,0.2,静穏,0.7,北東,11.6,97.9,0,0,0,0.5,0,0,1009,1023.1
210,2021-11-01T03:29:00,0.3,北北東,0.7,北東,11.6,97.9,0,0,0,0.5,0,0,1009,1023.1
211,2021-11-01T03:30:00,0.3,北北東,0.7,北東,11.6,97.9,0,0,0,0.5,0,0,1009,1023.1
212,2021-11-01T03:31:00,0.3,北東,0.7,北東,11.7,97.9,0,0,0,0.5,0,0,1009,1023.1
213,2021-11-01T03:32:00,0.3,北東,0.7,北東,11.5,97.9,0,0,0,0.5,0,0,1009,1023.1
214,2021-11-01T03:33:00,0.3,北東,0.7,北東,11.4,97.7,0,0,0,0.5,0,0,1009,1023.1
215,2021-11-01T03:34:00,0.4,北東,0.7,北東,11.6,97.9,0,0,0,0.5,0,0,1009,1023.1
216,2021-11-01T03:35:00,0.3,北北東,0.7,北東,11.5,97.9,0,0,0,0.5,0,0,1009,1023.1
217,2021-11-01T03:36:00,0.3,北東,0.6,北東,11.5,97.8,0,0,0,0.5,0,0,1009,1023.1
218,2021-11-01T03:37:00,0.2,静穏,0.6,北東,11.6,97.9,0,0,0,0.5,0,0,1009,1023.1
219,2021-11-01T03:38:00,0.2,静穏,0.6,北東,11.7,98,0,0,0,0.5,0,0,1009,1023.1
220,2021-11-01T03:39:00,0.2,静穏,0.5,北北東,11.8,98.1,0,0,0,0.5,0,0,1009,1023.1
221,2021-11-01T03:40:00,0.1,静穏,0.5,北北東,11.7,98,0,0,0,0.5,0,0,1009,1023.1
222,2021-11-01T03:41:00,0.1,静穏,0.5,北北東,11.5,97.9,0,0,0,0.5,0,0,1009,1023.1
223,2021-11-01T03:42:00,0.1,静穏,0.5,北北東,11.3,97.7,0,0,0,0.5,0,0,1009,1023.1
224,2021-11-01T03:43:00,0.1,静穏,0.5,北北東,11.5,97.8,0,0,0,0.5,0,0,1009,1023.1
225,2021-11-01T03:44:00,0.1,静穏,0.4,北,11.4,97.9,0,0,0,0.5,0,0,1009,1023.1
226,2021-11-01T03:45:00,0,静穏,0.4,北,11.6,98,0,0,0,0.5,0,0,1009,1023.1
227,2021-11-01T03:46:00,0.1,静穏,0.6,北北西,11.6,98,0,0,0,0.5,0,0,1009,1023.1
228,2021-11-01T03:47:00,0.1,静穏,0.8,北北西,11.6,98,0,0,0,0.5,0,0,1009,1023.1
229,2021-11-01T03:48:00,0.1,静穏,0.8,北北西,11.7,98.1,0,0,0,0.5,0,0,1009,1023.1
230,2021-11-01T03:49:00,0.1,静穏,0.8,北北西,11.6,98.1,0,0,0,0.5,0,0,1009,1023.1
231,2021-11-01T03:50:00,0.1,静穏,0.8,北北西,11.5,98,0,0,0,0.5,0,0,1009,1023.1
232,2021-11-01T03:51:00,0.2,静穏,0.8,北北西,11.5,98,0,0,0,0.5,0,0,1009,1023.1
233,2021-11-01T03:52:00,0.2,静穏,1.1,西北西,11.6,98,0,0,0,0.5,0,0,1009,1023.1
234,2021-11-01T03:53:00,0.3,北,1.1,西北西,11.7,98.1,0,0,0,0.5,0,0,1009,1023.1
235,2021-11-01T03:54:00,0.4,北北西,1.1,西北西,11.7,98.2,0,0,0,0.5,0,0,1009,1023.1
236,2021-11-01T03:55:00,0.5,北北西,1.1,西北西,11.7,98.1,0,0,0,0.5,0,0,1008.9,1023
237,2021-11-01T03:56:00,0.5,北西,1.1,西北西,11.6,98.1,0,0,0,0.5,0,0,1008.9,1023
238,2021-11-01T03:57:00,0.6,北西,1.1,西北西,11.7,98.1,0,0,0,0.5,0,0,1008.9,1023
239,2021-11-01T03:58:00,0.6,北西,1.1,西北西,11.7,98.1,0,0,0,0.5,0,0,1008.9,1023
240,2021-11-01T03:59:00,0.6,北西,1.1,西北西,11.7,98.1,0,0,0,0.5,0,0,1009,1023.1
241,2021-11-01T04:00:00,0.7,西北西,1.1,西北西,11.6,98.1,0,0,0,0.5,0,0,1009,1023.1
242,2021-11-01T04:01:00,0.6,北西,1.1,西北西,11.5,98.1,0,0,0,0.5,0,0,1009,1023.1
243,2021-11-01T04:02:00,0.6,北西,1.2,北北東,11.5,98,0,0,0,0.5,0,0,1009,1023.1
244,2021-11-01T04:03:00,0.6,北北西,1.2,北北東,11.6,98.1,0,0,0,0.5,0,0,1009,1023.1
245,2021-11-01T04:04:00,0.6,北北西,1.2,北北東,11.6,98.2,0,0,0,0.5,0,0,1009,1023.1
246,2021-11-01T04:05:00,0.6,北北西,1.2,北北東,11.5,98.1,0,0,0,0.5,0,0,1009,1023.1
247,2021-11-01T04:06:00,0.6,北,1.2,北北東,11.6,98.1,0,0,0,0.5,0,0,1009,1023.1
248,2021-11-01T04:07:00,0.6,北北東,1.2,北北東,11.5,98.1,0,0,0,0.5,0,0,1008.9,1023
249,2021-11-01T04:08:00,0.6,北北東,1.2,北北東,11.6,98.1,0,0,0,0.5,0,0,1008.9,1023
250,2021-11-01T04:09:00,0.6,北北東,1.2,北北東,11.5,98.1,0,0,0,0.5,0,0,1009,1023.1
251,2021-11-01T04:10:00,0.6,北東,1.2,北北東,11.4,98.1,0,0,0,0.5,0,0,1009,1023.1
252,2021-11-01T04:11:00,0.6,北北東,1.2,北北東,11.4,98,0,0,0,0.5,0,0,1009,1023.1
253,2021-11-01T04:12:00,0.6,北北東,1.2,北東,11.2,98.1,0,0,0,0.5,0,0,1009,1023.1
254,2021-11-01T04:13:00,0.5,北北東,1.1,北北東,11.2,98,0,0,0,0.5,0,0,1009,1023.1
255,2021-11-01T04:14:00,0.4,北北東,1.1,北北東,11.3,98,0,0,0,0.5,0,0,1009,1023.1
256,2021-11-01T04:15:00,0.4,北北東,1,北北東,11.2,98.1,0,0,0,0.5,0,0,1009,1023.1
257,2021-11-01T04:16:00,0.3,北北東,0.9,北北東,11.3,98.1,0,0,0,0.5,0,0,1009.1,1023.2
258,2021-11-01T04:17:00,0.3,北北東,0.9,北北東,11.4,98.2,0,0,0,0.5,0,0,1009.1,1023.2
259,2021-11-01T04:18:00,0.2,静穏,0.9,北北東,11.5,98.3,0,0,0,0.5,0,0,1009.1,1023.2
260,2021-11-01T04:19:00,0.2,静穏,0.6,北,11.5,98.3,0,0,0,0.5,0,0,1009.1,1023.2
261,2021-11-01T04:20:00,0.2,静穏,0.6,北,11.5,98.3,0,0,0,0.5,0,0,1009.1,1023.2
262,2021-11-01T04:21:00,0.2,静穏,0.7,北北東,11.5,98.3,0,0,0,0.5,0,0,1009.1,1023.2
263,2021-11-01T04:22:00,0.3,北北東,1,北北東,11.6,98.3,0,0,0,0.5,0,0,1009.1,1023.2
264,2021-11-01T04:23:00,0.3,北北東,1,北北東,11.5,98.2,0,0,0,0.5,0,0,1009.1,1023.2
265,2021-11-01T04:24:00,0.3,北北東,1,北北東,11.6,98.3,0,0,0,0.5,0,0,1009.1,1023.2
266,2021-11-01T04:25:00,0.4,北北東,1,北北東,11.5,98.3,0,0,0,0.5,0,0,1009.1,1023.2
267,2021-11-01T04:26:00,0.4,北北東,1,北北東,11.4,98.2,0,0,0,0.5,0,0,1009.1,1023.2
268,2021-11-01T04:27:00,0.4,北北東,1,北北東,11.5,98.2,0,0,0,0.5,0,0,1009.1,1023.2
269,2021-11-01T04:28:00,0.5,北北東,1,北北東,11.5,98.3,0,0,0,0.5,0,0,1009.1,1023.2
270,2021-11-01T04:29:00,0.5,北北東,1,北北東,11.5,98.2,0,0,0,0.5,0,0,1009.1,1023.2
271,2021-11-01T04:30:00,0.5,北北東,1,北北東,11.5,98.2,0,0,0,0.5,0,0,1009.1,1023.2
272,2021-11-01T04:31:00,0.5,北北東,1,北北東,11.4,98.2,0,0,0,0.5,0,0,1009.1,1023.2
273,2021-11-01T04:32:00,0.5,北北東,1,北北東,11.4,98.2,0,0,0,0.5,0,0,1009.1,1023.2
274,2021-11-01T04:33:00,0.5,北北東,1,北北東,11.3,98.2,0,0,0,0.5,0,0,1009.1,1023.2
275,2021-11-01T04:34:00,0.6,北北東,1,北北東,11.4,98.2,0,0,0,0.5,0,0,1009.1,1023.2
276,2021-11-01T04:35:00,0.6,北北東,1,北北東,11.4,98.2,0,0,0,0.5,0,0,1009.1,1023.2
277,2021-11-01T04:36:00,0.5,北東,1,北北東,11.3,98.2,0,0,0,0.5,0,0,1009.1,1023.2
278,2021-11-01T04:37:00,0.5,北東,1,北北東,11.3,98.1,0,0,0,0.5,0,0,1009.2,1023.3
279,2021-11-01T04:38:00,0.5,北東,0.9,北東,11.4,98.3,0,0,0,0.5,0,0,1009.2,1023.3
280,2021-11-01T04:39:00,0.4,北東,0.9,北東,11.4,98.3,0,0,0,0.5,0,0,1009.2,1023.3
281,2021-11-01T04:40:00,0.4,北東,0.9,北東,11.4,98.3,0,0,0,0.5,0,0,1009.2,1023.3
282,2021-11-01T04:41:00,0.4,北東,0.9,北東,11.5,98.3,0,0,0,0.5,0,0,1009.2,1023.3
283,2021-11-01T04:42:00,0.5,北東,1,北東,11.4,98.3,0,0,0,0.5,0,0,1009.2,1023.3
284,2021-11-01T04:43:00,0.5,北東,1,北東,11.4,98.2,0,0,0,0.5,0,0,1009.2,1023.3
285,2021-11-01T04:44:00,0.5,北北東,1.2,北東,11.4,98.3,0,0,0,0.5,0,0,1009.2,1023.3
286,2021-11-01T04:45:00,0.5,北北東,1.2,北東,11.3,98.2,0,0,0,0.5,0,0,1009.2,1023.3
287,2021-11-01T04:46:00,0.5,北東,1.2,北東,11.3,98.2,0,0,0,0.5,0,0,1009.2,1023.3
288,2021-11-01T04:47:00,0.5,北東,1.2,北東,11.1,98.2,0,0,0,0.5,0,0,1009.3,1023.4
289,2021-11-01T04:48:00,0.5,北東,1.2,北東,11.3,98.1,0,0,0,0.5,0,0,1009.3,1023.4
290,2021-11-01T04:49:00,0.5,北北東,1.2,北東,11.3,98.2,0,0,0,0.5,0,0,1009.3,1023.4
291,2021-11-01T04:50:00,0.5,北北東,1.2,北東,11.2,98.2,0,0,0,0.5,0,0,1009.3,1023.4
292,2021-11-01T04:51:00,0.5,北東,1.2,北東,11.3,98.2,0,0,0,0.5,0,0,1009.3,1023.4
293,2021-11-01T04:52:00,0.5,北東,1.2,北東,11.2,98.3,0,0,0,0.5,0,0,1009.3,1023.4
294,2021-11-01T04:53:00,0.4,北東,1.2,北東,11.3,98.2,0,0,0,0.5,0,0,1009.3,1023.4
295,2021-11-01T04:54:00,0.3,北東,1.1,北東,11.3,98.3,0,0,0,0.5,0,0,1009.3,1023.4
296,2021-11-01T04:55:00,0.3,北東,1,北東,11.3,98.3,0,0,0,0.5,0,0,1009.3,1023.4
297,2021-11-01T04:56:00,0.3,北北東,0.7,北東,11.3,98.3,0,0,0,0.5,0,0,1009.3,1023.4
298,2021-11-01T04:57:00,0.3,北北東,0.7,北東,11.4,98.3,0,0,0,0.5,0,0,1009.3,1023.4
299,2021-11-01T04:58:00,0.3,北北東,0.7,北東,11.4,98.3,0,0,0,0.5,0,0,1009.3,1023.4
300,2021-11-01T04:59:00,0.3,北北東,0.7,北東,11.3,98.3,0,0,0,0.5,0,0,1009.3,1023.4
301,2021-11-01T05:00:00,0.3,北北東,0.7,北東,11.2,98.2,0,0,0,0.5,0,0,1009.2,1023.3
302,2021-11-01T05:01:00,,"",,"",,,,,,,,,,
303,2021-11-01T05:02:00,0.3,北北東,0.8,北東,11.3,98.3,0,0,0,0.5,0,0,1009.2,1023.3
304,2021-11-01T05:03:00,0.3,北北東,0.8,北東,11.2,98.2,0,0,0,0.5,0,0,1009.2,1023.3
305,2021-11-01T05:04:00,0.4,北北東,0.8,北東,11.4,98.3,0,0,0,0.5,0,0,1009.2,1023.3
306,2021-11-01T05:05:00,0.4,北北東,0.8,北東,11.4,98.3,0,0,0,0.5,0,0,1009.2,1023.3
307,2021-11-01T05:06:00,0.4,北北東,0.8,北東,11.2,98.3,0,0,0,0.5,0,0,1009.2,1023.3
308,2021-11-01T05:07:00,0.4,北北東,0.8,北東,11,98.1,0,0,0,0.5,0,0,1009.2,1023.3
309,2021-11-01T05:08:00,0.3,北北東,0.8,北東,11.1,98.1,0,0,0,0.5,0,0,1009.2,1023.3
310,2021-11-01T05:09:00,0.3,北北東,0.8,北東,11.1,98.2,0,0,0,0.5,0,0,1009.2,1023.3
311,2021-11-01T05:10:00,0.3,北北東,0.8,北東,11.1,98.2,0,0,0,0.5,0,0,1009.1,1023.2
312,2021-11-01T05:11:00,0.3,北北東,0.9,北北東,11.1,98.2,0,0,0,0.5,0,0,1009.1,1023.2
313,2021-11-01T05:12:00,0.3,北北東,0.9,北北東,11.1,98.3,0,0,0,0.5,0,0,1009.1,1023.2
314,2021-11-01T05:13:00,0.3,北北東,0.9,北北東,11.2,98.3,0,0,0,0.5,0,0,1009.1,1023.2
315,2021-11-01T05:14:00,0.3,北北東,0.9,北北東,11.1,98.3,0,0,0,0.5,0,0,1009.1,1023.2
316,2021-11-01T05:15:00,0.3,北北東,0.9,北北東,11.3,98.3,0,0,0,0.5,0,0,1009.1,1023.2
317,2021-11-01T05:16:00,0.3,北北東,0.9,北北東,11.1,98.3,0,0,0,0.5,0,0,1009.1,1023.2
318,2021-11-01T05:17:00,0.3,北北東,0.9,北北東,11.1,98.2,0,0,0,0.5,0,0,1009.1,1023.2